Location: Haliburton Scout Reserve
(45.0900°N, 78.3200°W)
Time: 03:29:34
(UTC-04:00)

PCSat - Pass Details

Date: 31 May 2022
Orbit: 784 x 795 km, 67.1° (Epoch: 24 June)

Event Time Altitude Azimuth Distance (km) Brightness Sun altitude
Rises 02:37:17 0° 320° (NW) 3,304 13.2 -20.2°
Reaches altitude 10° 02:39:54 10° 312° (NW) 2,370 12.3 -20.0°
Maximum altitude 02:44:44 34° 249° (WSW) 1,295 10.3 -19.7°
Enters shadow 02:45:18 33° 236° (SW) 1,315 10.3 -19.6°
